Back to catalog

FENGYUN 1C DEB

AlivePO
NORAD 30073·DEBRIS·🇨🇳 China

Launched May 10, 1999 from Taiyuan Satellite Launch Center

Loading…

Next Passes (next 24 hours)

TLE

FreshSource: Space-Track

Epoch: Sep 14, 2026, 11:48 UTC

1 30073U 99025QA  26257.49173255  .00001705  00000-0  81191-3 0  9992
2 30073  99.4285 253.0482 0051190 222.4765 299.7451 14.20138332  8327

Track FENGYUN 1C DEB in real time with AllMySat

Download on the App Store